sat.trackr.live / text

‹ back to catalog

MERIDIAN-M 21L

NORAD 68571 · 2026-071A

PAYLOAD ACTIVE UNKNOWN

§ Identity

Operator
Country
CIS
Launch date
2026-04-03
Launch site
PLMSC
Launch vehicle
Mass (kg)
RCS (m²)

External: N2YO · Heavens-Above · Gunter

§ Orbital elements

Epoch: 2026-09-19T10:09:54.593856Z

Period
717.82 min
Inclination
62.8354°
Eccentricity
0.7116575
Mean motion
2.00608167 rev/d
Perigee alt
1,279.2 km
Apogee alt
39,077.3 km
Semi-major
26,556.4 km
B*
0.0000e+0
RAAN
216.3750°
Arg perigee
285.4932°
Mean anomaly
11.4432°
Rev number
340

§ Raw data

MERIDIAN-M 21L1 68571U 26071A   26262.42354854  .00000105  00000+0  00000+0 0  99902 68571  62.8354 216.3750 7116575 285.4932  11.4432  2.00608167  3408

JSON: /api/v1/satellites/68571 · /tle

For live sub-satellite position, see the globe view (requires WebGL).

§ Visibility from observer

Set your observer location to see the next 7 days of passes ≥ 10°. The values pass through the URL so the page stays shareable.

No JS? Fill the form by hand. The geolocation button needs JavaScript.